Bar Harbor, ME

12:10 PM EDT on October 17, 2019 (GMT -0400)
Hancock County-Bar Harbor

Weather History for KBHB - September, 2019

Change the Weather History Date:

Wednesday, September 18, 2019

  Actual Average Record
Temperature  
Mean Temperature 52 °F -  
Max Temperature 61 °F 67 °F 82 °F (1968)
Min Temperature 39 °F 48 °F 37 °F (1961)
Degree Days  
Heating Degree Days 14    
Growing Degree Days 2 (Base 50)    
Moisture  
Dew Point 43 °F    
Average Humidity 77    
Maximum Humidity 100    
Minimum Humidity 44    
Precipitation  
Precipitation 0.00 in - - ()
Sea Level Pressure  
Sea Level Pressure 30.30 in    
Wind  
Wind Speed 4 mph (North)    
Max Wind Speed 10 mph    
Max Gust Speed -    
Visibility 9 miles    
Events      
Averages and records for this station are not official NWS values.
T = Trace of Precipitation, MM = Missing Value Source: NWS Daily Summary

Daily Weather History Graph

Daily Weather History Graph

Search for Another Location

Airport or City:

Astronomy

Sep. 18, 2019 Rise Set
Actual Time 6:15 AM EDT 6:38 PM EDT
Civil Twilight 5:46 AM EDT 7:07 PM EDT
Nautical Twilight 5:12 AM EDT 7:42 PM EDT
Astronomical Twilight 4:36 AM EDT 8:17 PM EDT
Moon 9:01 PM EDT (9/18) 10:23 AM EDT (9/18)
Length of Visible Light 13h 21m
Length of Day
12h 23m
Waning Gibbous, 82% of the Moon is Illuminated
Sep 18
Waning Gibbous
Sep 21
Last Quarter
Sep 28
New
Oct 5
First Quarter
Oct 13
Full

Hourly Weather History & Observations

Time (EDT) Temp. Windchill Dew Point Humidity Pressure Visibility Wind Dir Wind Speed Gust Speed Precip Events Conditions
12:52 AM 48.2 °F - 44.6 °F 87% 30.23 in 10.0 mi North 4.6 mph - N/A   Overcast
12:56 AM 48.0 °F - 44.1 °F 86% 30.24 in 10.0 mi North 4.6 mph - N/A   Overcast
1:13 AM 48.2 °F - 44.6 °F 87% 30.23 in 10.0 mi North 3.5 mph - N/A   Overcast
1:25 AM 48.2 °F - 44.6 °F 87% 30.23 in 10.0 mi North 3.5 mph - N/A   Overcast
1:56 AM 48.0 °F - 44.1 °F 86% 30.24 in 10.0 mi NNW 3.5 mph - N/A   Overcast
2:40 AM 48.2 °F - 44.6 °F 87% 30.24 in 10.0 mi NNW 3.5 mph - N/A   Overcast
2:54 AM 48.2 °F - 44.6 °F 87% 30.24 in 10.0 mi NNW 3.5 mph - N/A   Overcast
2:56 AM 48.0 °F - 44.1 °F 86% 30.24 in 10.0 mi NNW 3.5 mph - N/A   Overcast
3:56 AM 48.9 °F - 44.1 °F 83% 30.25 in 10.0 mi North 3.5 mph - N/A   Overcast
4:56 AM 48.9 °F - 43.0 °F 80% 30.25 in 10.0 mi North 4.6 mph - N/A   Overcast
5:56 AM 48.0 °F - 43.0 °F 83% 30.27 in 10.0 mi North 3.5 mph - N/A   Overcast
6:56 AM 46.0 °F 43.9 °F 42.1 °F 86% 30.30 in 10.0 mi North 4.6 mph - N/A   Overcast
7:56 AM 48.0 °F - 43.0 °F 83% 30.32 in 10.0 mi North 6.9 mph - N/A   Scattered Clouds
8:56 AM 51.1 °F - 44.1 °F 77% 30.33 in 10.0 mi NNE 6.9 mph - N/A   Clear
9:56 AM 52.0 °F - 43.0 °F 71% 30.34 in 10.0 mi NNE 5.8 mph - N/A   Clear
10:56 AM 55.0 °F - 42.1 °F 62% 30.33 in 10.0 mi ENE 9.2 mph - N/A   Partly Cloudy
11:56 AM 57.0 °F - 41.0 °F 55% 30.33 in 10.0 mi NE 8.1 mph - N/A   Scattered Clouds
12:56 PM 59.0 °F - 41.0 °F 51% 30.33 in 10.0 mi Variable 6.9 mph - N/A   Partly Cloudy
1:56 PM 59.0 °F - 39.0 °F 48% 30.32 in 10.0 mi ENE 8.1 mph - N/A   Clear
2:56 PM 61.0 °F - 39.9 °F 46% 30.30 in 3.0 mi NNE 10.4 mph - N/A   Haze
3:56 PM 61.0 °F - 39.0 °F 44% 30.30 in 10.0 mi NNE 8.1 mph - N/A   Clear
4:56 PM 60.1 °F - 39.0 °F 46% 30.31 in 10.0 mi North 6.9 mph - N/A   Clear
5:56 PM 57.0 °F - 41.0 °F 55% 30.31 in 10.0 mi NNE 4.6 mph - N/A   Clear
6:56 PM 51.1 °F - 46.0 °F 83% 30.32 in 10.0 mi Calm Calm - N/A   Clear
7:56 PM 46.9 °F - 44.1 °F 90% 30.34 in 10.0 mi Calm Calm - N/A   Clear
8:56 PM 45.0 °F - 44.1 °F 97% 30.35 in 10.0 mi Calm Calm - N/A   Clear
9:56 PM 44.1 °F - 43.0 °F 96% 30.36 in 10.0 mi Calm Calm - N/A   Clear
10:56 PM 42.1 °F - 42.1 °F 100% 30.36 in 4.0 mi Calm Calm - N/A   Clear
11:56 PM 39.9 °F - 39.9 °F 100% 30.35 in 3.0 mi Calm Calm - N/A   Clear